Year,Month,Day,Hour,Minute,Value (Times are PST for temperature in C)
2021,06,01,00,00,13.80
2021,06,01,00,01,13.70
2021,06,01,00,02,13.70
2021,06,01,00,03,13.70
2021,06,01,00,04,13.70
2021,06,01,00,05,13.70
2021,06,01,00,06,13.70
2021,06,01,00,07,13.70
2021,06,01,00,08,13.60
2021,06,01,00,09,13.60
2021,06,01,00,10,13.60
2021,06,01,00,11,13.60
2021,06,01,00,12,13.60
2021,06,01,00,13,13.50
2021,06,01,00,14,13.50
2021,06,01,00,15,13.40
2021,06,01,00,16,13.40
2021,06,01,00,17,13.40
2021,06,01,00,18,13.40
2021,06,01,00,19,13.30
2021,06,01,00,20,13.30
2021,06,01,00,21,13.30
2021,06,01,00,22,13.20
2021,06,01,00,23,13.20
2021,06,01,00,24,13.20
2021,06,01,00,25,13.20
2021,06,01,00,26,13.10
2021,06,01,00,27,13.10
2021,06,01,00,28,13.10
2021,06,01,00,29,13.10
2021,06,01,00,30,13.10
2021,06,01,00,31,13.10
2021,06,01,00,32,13.10
2021,06,01,00,33,13.10
2021,06,01,00,34,13.10
2021,06,01,00,35,13.10
2021,06,01,00,36,13.10
2021,06,01,00,37,13.10
2021,06,01,00,38,13.10
2021,06,01,00,39,13.10
2021,06,01,00,40,13.10
2021,06,01,00,41,13.10
2021,06,01,00,42,13.20
2021,06,01,00,43,13.20
2021,06,01,00,44,13.20
2021,06,01,00,45,13.20
2021,06,01,00,46,13.30
2021,06,01,00,47,13.30
2021,06,01,00,48,13.30
2021,06,01,00,49,13.30
2021,06,01,00,50,13.30
2021,06,01,00,51,13.40
2021,06,01,00,52,13.40
2021,06,01,00,53,13.50
2021,06,01,00,54,13.50
2021,06,01,00,55,13.60
2021,06,01,00,56,13.60
2021,06,01,00,57,13.70
2021,06,01,00,58,13.70
2021,06,01,00,59,13.70
2021,06,01,01,00,13.80
2021,06,01,01,01,13.80
2021,06,01,01,02,13.80
2021,06,01,01,03,13.80
2021,06,01,01,04,13.80
2021,06,01,01,05,13.80
2021,06,01,01,06,13.80
2021,06,01,01,07,13.80
2021,06,01,01,08,13.80
2021,06,01,01,09,13.80
2021,06,01,01,10,13.80
2021,06,01,01,11,13.80
2021,06,01,01,12,13.70
2021,06,01,01,13,13.60
2021,06,01,01,14,13.60
2021,06,01,01,15,13.50
2021,06,01,01,16,13.50
2021,06,01,01,17,13.50
2021,06,01,01,18,13.50
2021,06,01,01,19,13.50
2021,06,01,01,20,13.50
2021,06,01,01,21,13.50
2021,06,01,01,22,13.50
2021,06,01,01,23,13.60
2021,06,01,01,24,13.60
2021,06,01,01,25,13.70
2021,06,01,01,26,13.80
2021,06,01,01,27,13.90
2021,06,01,01,28,14.00
2021,06,01,01,29,14.00
2021,06,01,01,30,14.10
2021,06,01,01,31,14.10
2021,06,01,01,32,14.10
2021,06,01,01,33,14.20
2021,06,01,01,34,14.20
2021,06,01,01,35,14.20
2021,06,01,01,36,14.30
2021,06,01,01,37,14.30
2021,06,01,01,38,14.30
2021,06,01,01,39,14.30
2021,06,01,01,40,14.30
2021,06,01,01,41,14.30
2021,06,01,01,42,14.30
2021,06,01,01,43,14.20
2021,06,01,01,44,14.20
2021,06,01,01,45,14.10
2021,06,01,01,46,14.00
2021,06,01,01,47,14.00
2021,06,01,01,48,13.90
2021,06,01,01,49,13.80
2021,06,01,01,50,13.70
2021,06,01,01,51,13.60
2021,06,01,01,52,13.40
2021,06,01,01,53,13.30
2021,06,01,01,54,13.20
2021,06,01,01,55,13.20
2021,06,01,01,56,13.00
2021,06,01,01,57,13.00
2021,06,01,01,58,12.90
2021,06,01,01,59,12.80
2021,06,01,02,00,12.70
2021,06,01,02,01,12.70
2021,06,01,02,02,12.60
2021,06,01,02,03,12.60
2021,06,01,02,04,12.50
2021,06,01,02,05,12.50
2021,06,01,02,06,12.50
2021,06,01,02,07,12.50
2021,06,01,02,08,12.40
2021,06,01,02,09,12.40
2021,06,01,02,10,12.40
2021,06,01,02,11,12.40
2021,06,01,02,12,12.40
2021,06,01,02,13,12.40
2021,06,01,02,14,12.40
2021,06,01,02,15,12.40
2021,06,01,02,16,12.40
2021,06,01,02,17,12.40
2021,06,01,02,18,12.40
2021,06,01,02,19,12.40
2021,06,01,02,20,12.40
2021,06,01,02,21,12.40
2021,06,01,02,22,12.40
2021,06,01,02,23,12.40
2021,06,01,02,24,12.50
2021,06,01,02,25,12.50
2021,06,01,02,26,12.50
2021,06,01,02,27,12.50
2021,06,01,02,28,12.50
2021,06,01,02,29,12.50
2021,06,01,02,30,12.50
2021,06,01,02,31,12.50
2021,06,01,02,32,12.50
2021,06,01,02,33,12.50
2021,06,01,02,34,12.50
2021,06,01,02,35,12.60
2021,06,01,02,36,12.60
2021,06,01,02,37,12.60
2021,06,01,02,38,12.60
2021,06,01,02,39,12.60
2021,06,01,02,40,12.70
2021,06,01,02,41,12.70
2021,06,01,02,42,12.70
2021,06,01,02,43,12.70
2021,06,01,02,44,12.70
2021,06,01,02,45,12.70
2021,06,01,02,46,12.70
2021,06,01,02,47,12.70
2021,06,01,02,48,12.70
2021,06,01,02,49,12.70
2021,06,01,02,50,12.80
2021,06,01,02,51,12.80
2021,06,01,02,52,12.90
2021,06,01,02,53,12.90
2021,06,01,02,54,12.90
2021,06,01,02,55,12.90
2021,06,01,02,56,12.90
2021,06,01,02,57,12.90
2021,06,01,02,58,13.00
2021,06,01,02,59,13.00
2021,06,01,03,00,13.00
2021,06,01,03,01,13.00
2021,06,01,03,02,13.00
2021,06,01,03,03,13.10
2021,06,01,03,04,13.10
2021,06,01,03,05,13.20
2021,06,01,03,06,13.30
2021,06,01,03,07,13.40
2021,06,01,03,08,13.40
2021,06,01,03,09,13.30
2021,06,01,03,10,13.20
2021,06,01,03,11,13.10
2021,06,01,03,12,13.00
2021,06,01,03,13,13.00
2021,06,01,03,14,12.90
2021,06,01,03,15,12.90
2021,06,01,03,16,12.90
2021,06,01,03,17,13.00
2021,06,01,03,18,13.00
2021,06,01,03,19,13.10
2021,06,01,03,20,13.10
2021,06,01,03,21,13.10
2021,06,01,03,22,13.10
2021,06,01,03,23,13.10
2021,06,01,03,24,13.00
2021,06,01,03,25,12.90
2021,06,01,03,26,12.80
2021,06,01,03,27,12.80
2021,06,01,03,28,12.70
2021,06,01,03,29,12.70
2021,06,01,03,30,12.70
2021,06,01,03,31,12.60
2021,06,01,03,32,12.60
2021,06,01,03,33,12.60
2021,06,01,03,34,12.60
2021,06,01,03,35,12.70
2021,06,01,03,36,12.70
2021,06,01,03,37,12.80
2021,06,01,03,38,12.80
2021,06,01,03,39,12.80
2021,06,01,03,40,12.90
2021,06,01,03,41,12.90
2021,06,01,03,42,12.90
2021,06,01,03,43,13.00
2021,06,01,03,44,13.00
2021,06,01,03,45,13.10
2021,06,01,03,46,13.10
2021,06,01,03,47,13.10
2021,06,01,03,48,13.20
2021,06,01,03,49,13.20
2021,06,01,03,50,13.20
2021,06,01,03,51,13.30
2021,06,01,03,52,13.30
2021,06,01,03,53,13.30
2021,06,01,03,54,13.40
2021,06,01,03,55,13.40
2021,06,01,03,56,13.40
2021,06,01,03,57,13.40
2021,06,01,03,58,13.50
2021,06,01,03,59,13.40
2021,06,01,04,00,13.40
2021,06,01,04,01,13.40
2021,06,01,04,02,13.40
2021,06,01,04,03,13.40
2021,06,01,04,04,13.40
2021,06,01,04,05,13.40
2021,06,01,04,06,13.40
2021,06,01,04,07,13.40
2021,06,01,04,08,13.40
2021,06,01,04,09,13.40
2021,06,01,04,10,13.50
2021,06,01,04,11,13.50
2021,06,01,04,12,13.60
2021,06,01,04,13,13.60
2021,06,01,04,14,13.60
2021,06,01,04,15,13.70
2021,06,01,04,16,13.70
2021,06,01,04,17,13.70
2021,06,01,04,18,13.70
2021,06,01,04,19,13.70
2021,06,01,04,20,13.70
2021,06,01,04,21,13.60
2021,06,01,04,22,13.60
2021,06,01,04,23,13.60
2021,06,01,04,24,13.50
2021,06,01,04,25,13.40
2021,06,01,04,26,13.30
2021,06,01,04,27,13.30
2021,06,01,04,28,13.20
2021,06,01,04,29,13.20
2021,06,01,04,30,13.20
2021,06,01,04,31,13.20
2021,06,01,04,32,13.20
2021,06,01,04,33,13.20
2021,06,01,04,34,13.10
2021,06,01,04,35,13.10
2021,06,01,04,36,13.10
2021,06,01,04,37,13.10
2021,06,01,04,38,13.10
2021,06,01,04,39,13.10
2021,06,01,04,40,13.00
2021,06,01,04,41,13.00
2021,06,01,04,42,13.00
2021,06,01,04,43,13.00
2021,06,01,04,44,13.00
2021,06,01,04,45,13.10
2021,06,01,04,46,13.10
2021,06,01,04,47,13.10
2021,06,01,04,48,13.20
2021,06,01,04,49,13.20
2021,06,01,04,50,13.20
2021,06,01,04,51,13.20
2021,06,01,04,52,13.20
2021,06,01,04,53,13.30
2021,06,01,04,54,13.50
2021,06,01,04,55,13.60
2021,06,01,04,56,13.60
2021,06,01,04,57,13.70
2021,06,01,04,58,13.80
2021,06,01,04,59,13.90
2021,06,01,05,00,14.00
2021,06,01,05,01,14.10
2021,06,01,05,02,14.20
2021,06,01,05,03,14.30
2021,06,01,05,04,14.50
2021,06,01,05,05,14.70
2021,06,01,05,06,14.80
2021,06,01,05,07,14.90
2021,06,01,05,08,15.10
2021,06,01,05,09,15.20
2021,06,01,05,10,15.30
2021,06,01,05,11,15.40
2021,06,01,05,12,15.50
2021,06,01,05,13,15.50
2021,06,01,05,14,15.60
2021,06,01,05,15,15.60
2021,06,01,05,16,15.60
2021,06,01,05,17,15.70
2021,06,01,05,18,15.70
2021,06,01,05,19,15.70
2021,06,01,05,20,15.80
2021,06,01,05,21,15.80
2021,06,01,05,22,15.80
2021,06,01,05,23,15.80
2021,06,01,05,24,15.80
2021,06,01,05,25,15.80
2021,06,01,05,26,15.90
2021,06,01,05,27,15.90
2021,06,01,05,28,15.90
2021,06,01,05,29,15.90
2021,06,01,05,30,15.90
2021,06,01,05,31,15.90
2021,06,01,05,32,15.90
2021,06,01,05,33,15.90
2021,06,01,05,34,15.90
2021,06,01,05,35,15.80
2021,06,01,05,36,15.80
2021,06,01,05,37,15.80
2021,06,01,05,38,15.80
2021,06,01,05,39,15.80
2021,06,01,05,40,15.80
2021,06,01,05,41,15.90
2021,06,01,05,42,15.90
2021,06,01,05,43,15.90
2021,06,01,05,44,15.90
2021,06,01,05,45,16.00
2021,06,01,05,46,16.00
2021,06,01,05,47,15.90
2021,06,01,05,48,15.70
2021,06,01,05,49,15.60
2021,06,01,05,50,15.40
2021,06,01,05,51,15.30
2021,06,01,05,52,15.20
2021,06,01,05,53,15.10
2021,06,01,05,54,15.10
2021,06,01,05,55,15.10
2021,06,01,05,56,15.30
2021,06,01,05,57,15.30
2021,06,01,05,58,15.40
2021,06,01,05,59,15.40
2021,06,01,06,00,15.40
2021,06,01,06,01,15.30
2021,06,01,06,02,15.30
2021,06,01,06,03,15.30
2021,06,01,06,04,15.40
2021,06,01,06,05,15.50
2021,06,01,06,06,15.50
2021,06,01,06,07,15.60
2021,06,01,06,08,15.60
2021,06,01,06,09,15.70
2021,06,01,06,10,15.70
2021,06,01,06,11,15.70
2021,06,01,06,12,15.60
2021,06,01,06,13,15.60
2021,06,01,06,14,15.60
2021,06,01,06,15,15.50
2021,06,01,06,16,15.40
2021,06,01,06,17,15.30
2021,06,01,06,18,15.30
2021,06,01,06,19,15.30
2021,06,01,06,20,15.20
2021,06,01,06,21,15.20
2021,06,01,06,22,15.20
2021,06,01,06,23,15.30
2021,06,01,06,24,15.30
2021,06,01,06,25,15.30
2021,06,01,06,26,15.40
2021,06,01,06,27,15.30
2021,06,01,06,28,15.40
2021,06,01,06,29,15.40
2021,06,01,06,30,15.30
2021,06,01,06,31,15.30
2021,06,01,06,32,15.40
2021,06,01,06,33,15.40
2021,06,01,06,34,15.50
2021,06,01,06,35,15.60
2021,06,01,06,36,15.60
2021,06,01,06,37,15.70
2021,06,01,06,38,15.80
2021,06,01,06,39,15.90
2021,06,01,06,40,16.00
2021,06,01,06,41,16.10
2021,06,01,06,42,16.10
2021,06,01,06,43,16.20
2021,06,01,06,44,16.30
2021,06,01,06,45,16.30
2021,06,01,06,46,16.40
2021,06,01,06,47,16.40
2021,06,01,06,48,16.50
2021,06,01,06,49,16.50
2021,06,01,06,50,16.60
2021,06,01,06,51,16.60
2021,06,01,06,52,16.70
2021,06,01,06,53,16.70
2021,06,01,06,54,16.60
2021,06,01,06,55,16.30
2021,06,01,06,56,15.90
2021,06,01,06,57,15.70
2021,06,01,06,58,15.50
2021,06,01,06,59,15.30
2021,06,01,07,00,15.20
2021,06,01,07,01,15.10
2021,06,01,07,02,15.00
2021,06,01,07,03,15.00
2021,06,01,07,04,15.00
2021,06,01,07,05,15.00
2021,06,01,07,06,15.10
2021,06,01,07,07,15.10
2021,06,01,07,08,15.30
2021,06,01,07,09,15.30
2021,06,01,07,10,15.50
2021,06,01,07,11,15.60
2021,06,01,07,12,15.70
2021,06,01,07,13,15.80
2021,06,01,07,14,15.80
2021,06,01,07,15,15.80
2021,06,01,07,16,15.60
2021,06,01,07,17,15.30
2021,06,01,07,18,15.10
2021,06,01,07,19,14.90
2021,06,01,07,20,14.70
2021,06,01,07,21,14.70
2021,06,01,07,22,14.60
2021,06,01,07,23,14.60
2021,06,01,07,24,14.60
2021,06,01,07,25,14.70
2021,06,01,07,26,14.80
2021,06,01,07,27,14.80
2021,06,01,07,28,15.00
2021,06,01,07,29,15.10
2021,06,01,07,30,15.20
2021,06,01,07,31,15.40
2021,06,01,07,32,15.60
2021,06,01,07,33,15.70
2021,06,01,07,34,15.90
2021,06,01,07,35,16.00
2021,06,01,07,36,16.20
2021,06,01,07,37,16.30
2021,06,01,07,38,16.30
2021,06,01,07,39,16.30
2021,06,01,07,40,16.30
2021,06,01,07,41,16.20
2021,06,01,07,42,16.20
2021,06,01,07,43,16.10
2021,06,01,07,44,16.10
2021,06,01,07,45,16.10
2021,06,01,07,46,16.10
2021,06,01,07,47,16.20
2021,06,01,07,48,16.10
2021,06,01,07,49,16.00
2021,06,01,07,50,15.90
2021,06,01,07,51,15.80
2021,06,01,07,52,15.70
2021,06,01,07,53,15.50
2021,06,01,07,54,15.40
2021,06,01,07,55,15.30
2021,06,01,07,56,15.10
2021,06,01,07,57,15.00
2021,06,01,07,58,14.90
2021,06,01,07,59,14.70
2021,06,01,08,00,14.60
2021,06,01,08,01,14.50
2021,06,01,08,02,14.40
2021,06,01,08,03,14.40
2021,06,01,08,04,14.30
2021,06,01,08,05,14.20
2021,06,01,08,06,14.20
2021,06,01,08,07,14.10
2021,06,01,08,08,14.10
2021,06,01,08,09,14.10
2021,06,01,08,10,14.00
2021,06,01,08,11,14.00
2021,06,01,08,12,13.90
2021,06,01,08,13,13.90
2021,06,01,08,14,13.90
2021,06,01,08,15,13.80
2021,06,01,08,16,13.80
2021,06,01,08,17,13.70
2021,06,01,08,18,13.70
2021,06,01,08,19,13.60
2021,06,01,08,20,13.60
2021,06,01,08,21,13.60
2021,06,01,08,22,13.60
2021,06,01,08,23,13.60
2021,06,01,08,24,13.60
2021,06,01,08,25,13.60
2021,06,01,08,26,13.60
2021,06,01,08,27,13.60
2021,06,01,08,28,13.60
2021,06,01,08,29,13.70
2021,06,01,08,30,13.70
2021,06,01,08,31,13.70
2021,06,01,08,32,13.80
2021,06,01,08,33,13.80
2021,06,01,08,34,13.80
2021,06,01,08,35,13.90
2021,06,01,08,36,14.00
2021,06,01,08,37,14.10
2021,06,01,08,38,14.10
2021,06,01,08,39,14.20
2021,06,01,08,40,14.20
2021,06,01,08,41,14.20
2021,06,01,08,42,14.30
2021,06,01,08,43,14.30
2021,06,01,08,44,14.40
2021,06,01,08,45,14.40
2021,06,01,08,46,14.40
2021,06,01,08,47,14.50
2021,06,01,08,48,14.50
2021,06,01,08,49,14.50
2021,06,01,08,50,14.50
2021,06,01,08,51,14.60
2021,06,01,08,52,14.60
2021,06,01,08,53,14.60
2021,06,01,08,54,14.70
2021,06,01,08,55,14.70
2021,06,01,08,56,14.80
2021,06,01,08,57,14.80
2021,06,01,08,58,14.90
2021,06,01,08,59,14.90
2021,06,01,09,00,15.00
2021,06,01,09,01,15.10
2021,06,01,09,02,15.10
2021,06,01,09,03,15.10
2021,06,01,09,04,15.10
2021,06,01,09,05,15.00
2021,06,01,09,06,15.00
2021,06,01,09,07,15.00
2021,06,01,09,08,15.00
2021,06,01,09,09,15.10
2021,06,01,09,10,15.10
2021,06,01,09,11,15.10
2021,06,01,09,12,15.10
2021,06,01,09,13,15.20
2021,06,01,09,14,15.20
2021,06,01,09,15,15.20
2021,06,01,09,16,15.20
2021,06,01,09,17,15.10
2021,06,01,09,18,15.10
2021,06,01,09,19,15.10
2021,06,01,09,20,15.00
2021,06,01,09,21,15.00
2021,06,01,09,22,14.90
2021,06,01,09,23,14.90
2021,06,01,09,24,14.90
2021,06,01,09,25,15.00
2021,06,01,09,26,15.00
2021,06,01,09,27,15.00
2021,06,01,09,28,15.10
2021,06,01,09,29,15.10
2021,06,01,09,30,15.10
2021,06,01,09,31,15.10
2021,06,01,09,32,15.20
2021,06,01,09,33,15.20
2021,06,01,09,34,15.30
2021,06,01,09,35,15.30
2021,06,01,09,36,15.40
2021,06,01,09,37,15.50
2021,06,01,09,38,15.50
2021,06,01,09,39,15.60
2021,06,01,09,40,15.60
2021,06,01,09,41,15.70
2021,06,01,09,42,15.80
2021,06,01,09,43,15.90
2021,06,01,09,44,16.00
2021,06,01,09,45,16.10
2021,06,01,09,46,16.20
2021,06,01,09,47,16.30
2021,06,01,09,48,16.40
2021,06,01,09,49,16.50
2021,06,01,09,50,16.60
2021,06,01,09,51,16.60
2021,06,01,09,52,16.70
2021,06,01,09,53,16.80
2021,06,01,09,54,16.80
2021,06,01,09,55,16.80
2021,06,01,09,56,16.90
2021,06,01,09,57,16.90
2021,06,01,09,58,16.90
2021,06,01,09,59,17.00
2021,06,01,10,00,17.10
2021,06,01,10,01,17.10
2021,06,01,10,02,17.20
2021,06,01,10,03,17.30
2021,06,01,10,04,17.40
2021,06,01,10,05,17.40
2021,06,01,10,06,17.40
2021,06,01,10,07,17.40
2021,06,01,10,08,17.40
2021,06,01,10,09,17.30
2021,06,01,10,10,17.30
2021,06,01,10,11,17.20
2021,06,01,10,12,17.20
2021,06,01,10,13,17.20
2021,06,01,10,14,17.20
2021,06,01,10,15,17.20
2021,06,01,10,16,17.20
2021,06,01,10,17,17.20
2021,06,01,10,18,17.30
2021,06,01,10,19,17.30
2021,06,01,10,20,17.40
2021,06,01,10,21,17.50
2021,06,01,10,22,17.60
2021,06,01,10,23,17.60
2021,06,01,10,24,17.70
2021,06,01,10,25,17.80
2021,06,01,10,26,17.80
2021,06,01,10,27,17.80
2021,06,01,10,28,17.90
2021,06,01,10,29,17.90
2021,06,01,10,30,18.00
2021,06,01,10,31,18.10
2021,06,01,10,32,18.10
2021,06,01,10,33,18.10
2021,06,01,10,34,18.00
2021,06,01,10,35,18.00
2021,06,01,10,36,17.90
2021,06,01,10,37,17.80
2021,06,01,10,38,17.80
2021,06,01,10,39,17.70
2021,06,01,10,40,17.60
2021,06,01,10,41,17.60
2021,06,01,10,42,17.50
2021,06,01,10,43,17.40
2021,06,01,10,44,17.20
2021,06,01,10,45,17.10
2021,06,01,10,46,16.90
2021,06,01,10,47,16.70
2021,06,01,10,48,16.60
2021,06,01,10,49,16.40
2021,06,01,10,50,16.30
2021,06,01,10,51,16.30
2021,06,01,10,52,16.30
2021,06,01,10,53,16.20
2021,06,01,10,54,16.20
2021,06,01,10,55,16.20
2021,06,01,10,56,16.20
2021,06,01,10,57,16.20
2021,06,01,10,58,16.20
2021,06,01,10,59,16.20
2021,06,01,11,00,16.20
2021,06,01,11,01,16.20
2021,06,01,11,02,16.20
2021,06,01,11,03,16.20
2021,06,01,11,04,16.20
2021,06,01,11,05,16.20
2021,06,01,11,06,16.30
2021,06,01,11,07,16.30
2021,06,01,11,08,16.30
2021,06,01,11,09,16.40
2021,06,01,11,10,16.50
2021,06,01,11,11,16.60
2021,06,01,11,12,16.60
2021,06,01,11,13,16.60
2021,06,01,11,14,16.70
2021,06,01,11,15,16.70
2021,06,01,11,16,16.80
2021,06,01,11,17,16.80
2021,06,01,11,18,16.90
2021,06,01,11,19,16.90
2021,06,01,11,20,17.00
2021,06,01,11,21,17.10
2021,06,01,11,22,17.10
2021,06,01,11,23,17.20
2021,06,01,11,24,17.20
2021,06,01,11,25,17.30
2021,06,01,11,26,17.30
2021,06,01,11,27,17.40
2021,06,01,11,28,17.50
2021,06,01,11,29,17.60
2021,06,01,11,30,17.70
2021,06,01,11,31,17.80
2021,06,01,11,32,17.80
2021,06,01,11,33,17.80
2021,06,01,11,34,17.90
2021,06,01,11,35,17.90
2021,06,01,11,36,17.90
2021,06,01,11,37,18.00
2021,06,01,11,38,18.10
2021,06,01,11,39,18.10
2021,06,01,11,40,18.20
2021,06,01,11,41,18.30
2021,06,01,11,42,18.40
2021,06,01,11,43,18.40
2021,06,01,11,44,18.50
2021,06,01,11,45,18.60
2021,06,01,11,46,18.70
2021,06,01,11,47,18.70
2021,06,01,11,48,18.80
2021,06,01,11,49,18.80
2021,06,01,11,50,18.90
2021,06,01,11,51,18.90
2021,06,01,11,52,18.90
2021,06,01,11,53,19.00
2021,06,01,11,54,19.00
2021,06,01,11,55,19.00
2021,06,01,11,56,19.00
2021,06,01,11,57,19.00
2021,06,01,11,58,18.90
2021,06,01,11,59,18.90
2021,06,01,12,00,18.90
2021,06,01,12,01,18.80
2021,06,01,12,02,18.80
2021,06,01,12,03,18.80
2021,06,01,12,04,18.90
2021,06,01,12,05,18.90
2021,06,01,12,06,19.00
2021,06,01,12,07,19.10
2021,06,01,12,08,19.20
2021,06,01,12,09,19.30
2021,06,01,12,10,19.30
2021,06,01,12,11,19.40
2021,06,01,12,12,19.40
2021,06,01,12,13,19.50
2021,06,01,12,14,19.50
2021,06,01,12,15,19.60
2021,06,01,12,16,19.60
2021,06,01,12,17,19.60
2021,06,01,12,18,19.70
2021,06,01,12,19,19.70
2021,06,01,12,20,19.80
2021,06,01,12,21,19.80
2021,06,01,12,22,19.90
2021,06,01,12,23,19.90
2021,06,01,12,24,20.00
2021,06,01,12,25,20.00
2021,06,01,12,26,20.00
2021,06,01,12,27,20.10
2021,06,01,12,28,20.10
2021,06,01,12,29,20.10
2021,06,01,12,30,20.10
2021,06,01,12,31,20.00
2021,06,01,12,32,20.00
2021,06,01,12,33,19.90
2021,06,01,12,34,19.80
2021,06,01,12,35,19.80
2021,06,01,12,36,19.70
2021,06,01,12,37,19.70
2021,06,01,12,38,19.70
2021,06,01,12,39,19.70
2021,06,01,12,40,19.70
2021,06,01,12,41,19.60
2021,06,01,12,42,19.60
2021,06,01,12,43,19.70
2021,06,01,12,44,19.70
2021,06,01,12,45,19.70
2021,06,01,12,46,19.70
2021,06,01,12,47,19.80
2021,06,01,12,48,19.80
2021,06,01,12,49,19.90
2021,06,01,12,50,20.00
2021,06,01,12,51,20.00
2021,06,01,12,52,20.10
2021,06,01,12,53,20.10
2021,06,01,12,54,20.20
2021,06,01,12,55,20.20
2021,06,01,12,56,20.30
2021,06,01,12,57,20.30
2021,06,01,12,58,20.40
2021,06,01,12,59,20.50
2021,06,01,13,00,20.40
2021,06,01,13,01,20.10
2021,06,01,13,02,19.90
2021,06,01,13,03,19.80
2021,06,01,13,04,19.60
2021,06,01,13,05,19.50
2021,06,01,13,06,19.40
2021,06,01,13,07,19.30
2021,06,01,13,08,19.20
2021,06,01,13,09,19.10
2021,06,01,13,10,18.90
2021,06,01,13,11,18.60
2021,06,01,13,12,18.40
2021,06,01,13,13,18.10
2021,06,01,13,14,17.80
2021,06,01,13,15,17.50
2021,06,01,13,16,17.30
2021,06,01,13,17,17.00
2021,06,01,13,18,16.70
2021,06,01,13,19,16.50
2021,06,01,13,20,16.40
2021,06,01,13,21,16.20
2021,06,01,13,22,16.10
2021,06,01,13,23,15.90
2021,06,01,13,24,15.80
2021,06,01,13,25,15.70
2021,06,01,13,26,15.60
2021,06,01,13,27,15.60
2021,06,01,13,28,15.50
2021,06,01,13,29,15.50
2021,06,01,13,30,15.50
2021,06,01,13,31,15.60
2021,06,01,13,32,15.70
2021,06,01,13,33,15.80
2021,06,01,13,34,15.80
2021,06,01,13,35,15.80
2021,06,01,13,36,15.70
2021,06,01,13,37,15.60
2021,06,01,13,38,15.60
2021,06,01,13,39,15.50
2021,06,01,13,40,15.40
2021,06,01,13,41,15.40
2021,06,01,13,42,15.40
2021,06,01,13,43,15.30
2021,06,01,13,44,15.30
2021,06,01,13,45,15.30
2021,06,01,13,46,15.30
2021,06,01,13,47,15.30
2021,06,01,13,48,15.40
2021,06,01,13,49,15.40
2021,06,01,13,50,15.40
2021,06,01,13,51,15.40
2021,06,01,13,52,15.40
2021,06,01,13,53,15.40
2021,06,01,13,54,15.40
2021,06,01,13,55,15.40
2021,06,01,13,56,15.40
2021,06,01,13,57,15.40
2021,06,01,13,58,15.40
2021,06,01,13,59,15.40
2021,06,01,14,00,15.40
2021,06,01,14,01,15.40
2021,06,01,14,02,15.40
2021,06,01,14,03,15.40
2021,06,01,14,04,15.40
2021,06,01,14,05,15.40
2021,06,01,14,06,15.40
2021,06,01,14,07,15.50
2021,06,01,14,08,15.50
2021,06,01,14,09,15.60
2021,06,01,14,10,15.60
2021,06,01,14,11,15.60
2021,06,01,14,12,15.70
2021,06,01,14,13,15.70
2021,06,01,14,14,15.70
2021,06,01,14,15,15.80
2021,06,01,14,16,15.80
2021,06,01,14,17,15.80
2021,06,01,14,18,15.90
2021,06,01,14,19,15.90
2021,06,01,14,20,15.90
2021,06,01,14,21,15.90
2021,06,01,14,22,16.00
2021,06,01,14,23,16.00
2021,06,01,14,24,16.10
2021,06,01,14,25,16.10
2021,06,01,14,26,16.10
2021,06,01,14,27,16.10
2021,06,01,14,28,16.20
2021,06,01,14,29,16.20
2021,06,01,14,30,16.20
2021,06,01,14,31,16.30
2021,06,01,14,32,16.30
2021,06,01,14,33,16.50
2021,06,01,14,34,16.60
2021,06,01,14,35,16.80
2021,06,01,14,36,16.90
2021,06,01,14,37,17.00
2021,06,01,14,38,17.10
2021,06,01,14,39,17.10
2021,06,01,14,40,17.10
2021,06,01,14,41,17.10
2021,06,01,14,42,17.10
2021,06,01,14,43,17.10
2021,06,01,14,44,17.00
2021,06,01,14,45,17.00
2021,06,01,14,46,17.10
2021,06,01,14,47,17.20
2021,06,01,14,48,17.20
2021,06,01,14,49,17.30
2021,06,01,14,50,17.30
2021,06,01,14,51,17.30
2021,06,01,14,52,17.30
2021,06,01,14,53,17.30
2021,06,01,14,54,17.20
2021,06,01,14,55,17.10
2021,06,01,14,56,17.10
2021,06,01,14,57,17.00
2021,06,01,14,58,16.90
2021,06,01,14,59,16.80
2021,06,01,15,00,16.70
2021,06,01,15,01,16.70
2021,06,01,15,02,16.60
2021,06,01,15,03,16.60
2021,06,01,15,04,16.50
2021,06,01,15,05,16.40
2021,06,01,15,06,16.40
2021,06,01,15,07,16.30
2021,06,01,15,08,16.30
2021,06,01,15,09,16.20
2021,06,01,15,10,16.10
2021,06,01,15,11,16.00
2021,06,01,15,12,16.00
2021,06,01,15,13,15.90
2021,06,01,15,14,15.90
2021,06,01,15,15,15.80
2021,06,01,15,16,15.70
2021,06,01,15,17,15.70
2021,06,01,15,18,15.70
2021,06,01,15,19,15.70
2021,06,01,15,20,15.70
2021,06,01,15,21,15.70
2021,06,01,15,22,15.80
2021,06,01,15,23,15.80
2021,06,01,15,24,15.80
2021,06,01,15,25,15.80
2021,06,01,15,26,15.80
2021,06,01,15,27,15.90
2021,06,01,15,28,15.90
2021,06,01,15,29,16.00
2021,06,01,15,30,16.00
2021,06,01,15,31,16.10
2021,06,01,15,32,16.10
2021,06,01,15,33,16.20
2021,06,01,15,34,16.20
2021,06,01,15,35,16.20
2021,06,01,15,36,16.30
2021,06,01,15,37,16.30
2021,06,01,15,38,16.40
2021,06,01,15,39,16.60
2021,06,01,15,40,16.70
2021,06,01,15,41,16.70
2021,06,01,15,42,16.80
2021,06,01,15,43,16.80
2021,06,01,15,44,16.90
2021,06,01,15,45,17.00
2021,06,01,15,46,17.00
2021,06,01,15,47,17.10
2021,06,01,15,48,17.10
2021,06,01,15,49,17.20
2021,06,01,15,50,17.20
2021,06,01,15,51,17.20
2021,06,01,15,52,17.20
2021,06,01,15,53,17.30
2021,06,01,15,54,17.30
2021,06,01,15,55,17.30
2021,06,01,15,56,17.30
2021,06,01,15,57,17.40
2021,06,01,15,58,17.40
2021,06,01,15,59,17.50
2021,06,01,16,00,17.50
2021,06,01,16,01,17.60
2021,06,01,16,02,17.60
2021,06,01,16,03,17.70
2021,06,01,16,04,17.80
2021,06,01,16,05,17.90
2021,06,01,16,06,17.90
2021,06,01,16,07,17.90
2021,06,01,16,08,17.90
2021,06,01,16,09,18.00
2021,06,01,16,10,18.00
2021,06,01,16,11,18.10
2021,06,01,16,12,18.10
2021,06,01,16,13,18.10
2021,06,01,16,14,18.20
2021,06,01,16,15,18.20
2021,06,01,16,16,18.20
2021,06,01,16,17,18.30
2021,06,01,16,18,18.30
2021,06,01,16,19,18.30
2021,06,01,16,20,18.30
2021,06,01,16,21,18.30
2021,06,01,16,22,18.20
2021,06,01,16,23,18.20
2021,06,01,16,24,18.20
2021,06,01,16,25,18.20
2021,06,01,16,26,18.20
2021,06,01,16,27,18.20
2021,06,01,16,28,18.10
2021,06,01,16,29,18.10
2021,06,01,16,30,18.10
2021,06,01,16,31,18.10
2021,06,01,16,32,18.10
2021,06,01,16,33,18.10
2021,06,01,16,34,18.10
2021,06,01,16,35,18.10
2021,06,01,16,36,18.00
2021,06,01,16,37,18.00
2021,06,01,16,38,18.00
2021,06,01,16,39,18.00
2021,06,01,16,40,18.00
2021,06,01,16,41,17.90
2021,06,01,16,42,17.90
2021,06,01,16,43,17.90
2021,06,01,16,44,17.90
2021,06,01,16,45,17.80
2021,06,01,16,46,17.80
2021,06,01,16,47,17.80
2021,06,01,16,48,17.70
2021,06,01,16,49,17.70
2021,06,01,16,50,17.60
2021,06,01,16,51,17.60
2021,06,01,16,52,17.50
2021,06,01,16,53,17.50
2021,06,01,16,54,17.50
2021,06,01,16,55,17.50
2021,06,01,16,56,17.50
2021,06,01,16,57,17.60
2021,06,01,16,58,17.60
2021,06,01,16,59,17.60
2021,06,01,17,00,17.70
2021,06,01,17,01,17.70
2021,06,01,17,02,17.80
2021,06,01,17,03,17.80
2021,06,01,17,04,17.80
2021,06,01,17,05,17.80
2021,06,01,17,06,17.70
2021,06,01,17,07,17.70
2021,06,01,17,08,17.70
2021,06,01,17,09,17.70
2021,06,01,17,10,17.80
2021,06,01,17,11,17.80
2021,06,01,17,12,17.80
2021,06,01,17,13,17.80
2021,06,01,17,14,17.80
2021,06,01,17,15,17.70
2021,06,01,17,16,17.70
2021,06,01,17,17,17.60
2021,06,01,17,18,17.50
2021,06,01,17,19,17.50